Time,TemperatureF,DewpointF,PressureIn,WindDirection,WindDirectionDegrees,WindSpeedMPH,WindSpeedGustMPH,Humidity,HourlyPrecipIn,Conditions,Clouds,dailyrainin,SoftwareType,DateUTC
2013-06-01 00:02:00,66.0,63.0,-100.00,SSE,155,2.0,8.0,88,0.01,,,-99.99,,2013-06-01 05:02:00,
2013-06-01 00:12:00,66.0,63.0,-100.00,SSE,155,2.0,8.0,88,0.01,,,-99.99,,2013-06-01 05:12:00,
2013-06-01 00:22:00,66.0,63.0,-100.00,ESE,115,3.0,6.0,90,0.00,,,-99.99,,2013-06-01 05:22:00,
2013-06-01 00:32:00,66.0,63.0,-100.00,ESE,115,3.0,6.0,90,0.00,,,-99.99,,2013-06-01 05:32:00,
2013-06-01 00:42:00,63.0,60.0,-100.00,West,275,20.0,26.0,88,0.00,,,-99.99,,2013-06-01 05:42:00,
2013-06-01 00:52:00,63.0,60.0,-100.00,West,275,20.0,26.0,88,0.00,,,-99.99,,2013-06-01 05:52:00,
2013-06-01 01:01:00,58.0,56.0,-100.00,SSW,205,14.0,29.0,95,1.71,,,-99.99,,2013-06-01 06:01:00,
2013-06-01 01:12:00,57.0,56.0,-100.00,SW,215,14.0,25.0,96,0.81,,,-99.99,,2013-06-01 06:12:00,
2013-06-01 01:22:00,58.0,56.0,-100.00,SSW,200,7.0,24.0,96,0.00,,,-99.99,,2013-06-01 06:22:00,
2013-06-01 01:32:00,58.0,56.0,-100.00,SSW,200,7.0,24.0,96,0.00,,,-99.99,,2013-06-01 06:32:00,
2013-06-01 01:42:00,58.0,56.0,-100.00,SSW,195,4.0,9.0,94,0.00,,,-99.99,,2013-06-01 06:42:00,
2013-06-01 01:52:00,58.0,56.0,-100.00,SSW,195,4.0,9.0,94,0.00,,,-99.99,,2013-06-01 06:52:00,
2013-06-01 02:01:00,58.0,56.0,-100.00,South,170,3.0,6.0,94,0.00,,,-99.99,,2013-06-01 07:01:00,
2013-06-01 02:11:00,58.0,56.0,-100.00,South,170,3.0,6.0,94,0.00,,,-99.99,,2013-06-01 07:11:00,
2013-06-01 02:21:00,59.0,57.0,-100.00,South,185,4.0,5.0,94,0.00,,,-99.99,,2013-06-01 07:21:00,
2013-06-01 02:32:00,59.0,57.0,-100.00,South,185,4.0,5.0,94,0.00,,,-99.99,,2013-06-01 07:32:00,
2013-06-01 02:42:00,59.0,58.0,-100.00,South,190,3.0,6.0,95,0.00,,,-99.99,,2013-06-01 07:42:00,
2013-06-01 02:52:00,59.0,58.0,-100.00,South,190,3.0,6.0,95,0.00,,,-99.99,,2013-06-01 07:52:00,
2013-06-01 03:02:00,60.0,59.0,-100.00,South,180,2.0,5.0,95,0.00,,,-99.99,,2013-06-01 08:02:00,
2013-06-01 03:11:00,61.0,59.0,-100.00,South,180,3.0,5.0,95,0.00,,,-99.99,,2013-06-01 08:11:00,
2013-06-01 03:21:00,61.0,60.0,-100.00,South,190,2.0,5.0,95,0.00,,,-99.99,,2013-06-01 08:21:00,
2013-06-01 03:32:00,61.0,60.0,-100.00,South,190,2.0,5.0,95,0.00,,,-99.99,,2013-06-01 08:32:00,
2013-06-01 03:42:00,61.0,59.0,-100.00,South,190,3.0,6.0,95,0.00,,,-99.99,,2013-06-01 08:42:00,
2013-06-01 03:52:00,61.0,59.0,-100.00,South,190,3.0,6.0,95,0.00,,,-99.99,,2013-06-01 08:52:00,
2013-06-01 04:01:00,60.0,59.0,-100.00,South,180,3.0,4.0,95,0.00,,,-99.99,,2013-06-01 09:01:00,
2013-06-01 04:12:00,60.0,59.0,-100.00,South,175,4.0,6.0,95,0.00,,,-99.99,,2013-06-01 09:12:00,
2013-06-01 04:21:00,60.0,59.0,-100.00,South,175,4.0,6.0,95,0.00,,,-99.99,,2013-06-01 09:21:00,
2013-06-01 04:33:00,60.0,59.0,-100.00,South,180,3.0,6.0,95,0.00,,,-99.99,,2013-06-01 09:33:00,
2013-06-01 04:42:00,60.0,59.0,-100.00,South,180,3.0,6.0,95,0.00,,,-99.99,,2013-06-01 09:42:00,
2013-06-01 04:53:00,60.0,59.0,-100.00,South,180,3.0,6.0,95,0.00,,,-99.99,,2013-06-01 09:53:00,
2013-06-01 05:02:00,60.0,59.0,-100.00,South,180,3.0,6.0,95,0.00,,,-99.99,,2013-06-01 10:02:00,
2013-06-01 05:13:00,59.0,58.0,-100.00,SSE,165,3.0,6.0,95,0.00,,,-99.99,,2013-06-01 10:13:00,
2013-06-01 05:22:00,59.0,58.0,-100.00,SSE,165,3.0,6.0,95,0.00,,,-99.99,,2013-06-01 10:22:00,
2013-06-01 05:33:00,59.0,58.0,-100.00,SSE,165,3.0,6.0,95,0.00,,,-99.99,,2013-06-01 10:33:00,
2013-06-01 05:42:00,57.0,56.0,-100.00,SSW,210,6.0,9.0,95,0.00,,,-99.99,,2013-06-01 10:42:00,
2013-06-01 05:52:00,57.0,56.0,-100.00,South,190,7.0,9.0,95,0.00,,,-99.99,,2013-06-01 10:52:00,
2013-06-01 06:02:00,56.0,55.0,-100.00,SSW,200,6.0,9.0,95,0.00,,,-99.99,,2013-06-01 11:02:00,
2013-06-01 06:11:00,56.0,55.0,-100.00,SW,220,7.0,10.0,95,0.00,,,-99.99,,2013-06-01 11:11:00,
2013-06-01 06:21:00,56.0,55.0,-100.00,SW,220,7.0,10.0,95,0.00,,,-99.99,,2013-06-01 11:21:00,
2013-06-01 06:32:00,56.0,54.0,-100.00,SW,220,7.0,9.0,92,0.00,,,-99.99,,2013-06-01 11:32:00,
2013-06-01 06:42:00,56.0,54.0,-100.00,SW,220,7.0,9.0,92,0.00,,,-99.99,,2013-06-01 11:42:00,
2013-06-01 06:52:00,56.0,53.0,-100.00,SW,215,8.0,12.0,88,0.00,,,-99.99,,2013-06-01 11:52:00,
2013-06-01 07:01:00,56.0,53.0,-100.00,SW,215,8.0,12.0,88,0.00,,,-99.99,,2013-06-01 12:01:00,
2013-06-01 07:12:00,58.0,53.0,-100.00,SW,220,7.0,12.0,85,0.00,,,-99.99,,2013-06-01 12:12:00,
2013-06-01 07:21:00,58.0,53.0,-100.00,SW,220,7.0,12.0,85,0.00,,,-99.99,,2013-06-01 12:21:00,
2013-06-01 07:32:00,58.0,53.0,-100.00,SW,215,7.0,11.0,83,0.00,,,-99.99,,2013-06-01 12:32:00,
2013-06-01 07:42:00,58.0,53.0,-100.00,SW,215,7.0,11.0,83,0.00,,,-99.99,,2013-06-01 12:42:00,
2013-06-01 07:52:00,59.0,53.0,-100.00,SW,230,7.0,12.0,81,0.00,,,-99.99,,2013-06-01 12:52:00,
2013-06-01 08:01:00,59.0,53.0,-100.00,SW,230,7.0,12.0,81,0.00,,,-99.99,,2013-06-01 13:01:00,
2013-06-01 08:11:00,60.0,53.0,-100.00,SW,230,10.0,12.0,79,0.00,,,-99.99,,2013-06-01 13:11:00,
2013-06-01 08:22:00,60.0,53.0,-100.00,SW,230,10.0,12.0,79,0.00,,,-99.99,,2013-06-01 13:22:00,
2013-06-01 08:32:00,60.0,53.0,-100.00,WSW,245,9.0,12.0,77,0.00,,,-99.99,,2013-06-01 13:32:00,
2013-06-01 08:42:00,60.0,53.0,-100.00,WSW,245,9.0,12.0,77,0.00,,,-99.99,,2013-06-01 13:42:00,
2013-06-01 08:52:00,61.0,54.0,-100.00,WSW,255,9.0,12.0,75,0.00,,,-99.99,,2013-06-01 13:52:00,
2013-06-01 09:02:00,61.0,54.0,-100.00,WSW,255,9.0,12.0,75,0.00,,,-99.99,,2013-06-01 14:02:00,
2013-06-01 09:11:00,62.0,54.0,-100.00,WSW,245,9.0,12.0,74,0.00,,,-99.99,,2013-06-01 14:11:00,
2013-06-01 09:21:00,62.0,54.0,-100.00,WSW,245,9.0,12.0,74,0.00,,,-99.99,,2013-06-01 14:21:00,
2013-06-01 09:32:00,62.0,54.0,-100.00,SW,230,9.0,12.0,72,0.00,,,-99.99,,2013-06-01 14:32:00,
2013-06-01 09:42:00,62.0,54.0,-100.00,SW,230,9.0,12.0,72,0.00,,,-99.99,,2013-06-01 14:42:00,
2013-06-01 09:52:00,64.0,54.0,-100.00,West,260,9.0,12.0,69,0.00,,,-99.99,,2013-06-01 14:52:00,
2013-06-01 10:02:00,64.0,54.0,-100.00,West,260,9.0,12.0,69,0.00,,,-99.99,,2013-06-01 15:02:00,
2013-06-01 10:11:00,65.0,54.0,-100.00,WSW,240,8.0,12.0,68,0.00,,,-99.99,,2013-06-01 15:11:00,
2013-06-01 10:21:00,65.0,54.0,-100.00,WSW,240,8.0,12.0,68,0.00,,,-99.99,,2013-06-01 15:21:00,
2013-06-01 10:33:00,65.0,53.0,-100.00,WSW,240,11.0,13.0,65,0.00,,,-99.99,,2013-06-01 15:33:00,
2013-06-01 10:43:00,65.0,53.0,-100.00,WSW,240,11.0,13.0,65,0.00,,,-99.99,,2013-06-01 15:43:00,
2013-06-01 10:53:00,65.0,53.0,-100.00,WSW,255,5.0,10.0,63,0.00,,,-99.99,,2013-06-01 15:53:00,
2013-06-01 11:03:00,65.0,53.0,-100.00,WSW,255,5.0,10.0,63,0.00,,,-99.99,,2013-06-01 16:03:00,
2013-06-01 11:12:00,65.0,53.0,-100.00,WSW,255,5.0,10.0,63,0.00,,,-99.99,,2013-06-01 16:12:00,
2013-06-01 11:23:00,65.0,53.0,-100.00,WSW,255,5.0,10.0,63,0.00,,,-99.99,,2013-06-01 16:23:00,
2013-06-01 11:33:00,67.0,52.0,-100.00,West,280,7.0,11.0,60,0.00,,,-99.99,,2013-06-01 16:33:00,
2013-06-01 11:42:00,64.0,51.0,-100.00,SSW,210,7.0,11.0,62,0.00,,,-99.99,,2013-06-01 16:42:00,
2013-06-01 11:52:00,64.0,52.0,-100.00,SW,225,9.0,12.0,66,0.00,,,-99.99,,2013-06-01 16:52:00,
2013-06-01 12:02:00,64.0,52.0,-100.00,SW,225,9.0,12.0,66,0.00,,,-99.99,,2013-06-01 17:02:00,
2013-06-01 12:12:00,64.0,53.0,-100.00,SW,220,9.0,12.0,67,0.00,,,-99.99,,2013-06-01 17:12:00,
2013-06-01 12:22:00,64.0,53.0,-100.00,SW,235,10.0,14.0,66,0.00,,,-99.99,,2013-06-01 17:22:00,
2013-06-01 12:32:00,64.0,53.0,-100.00,SW,235,10.0,14.0,66,0.00,,,-99.99,,2013-06-01 17:32:00,
2013-06-01 12:42:00,64.0,53.0,-100.00,WSW,255,11.0,14.0,67,0.00,,,-99.99,,2013-06-01 17:42:00,
2013-06-01 12:52:00,63.0,52.0,-100.00,SW,235,11.0,15.0,67,0.00,,,-99.99,,2013-06-01 17:52:00,
2013-06-01 13:01:00,63.0,53.0,-100.00,WSW,240,10.0,14.0,69,0.00,,,-99.99,,2013-06-01 18:01:00,
2013-06-01 13:12:00,64.0,54.0,-100.00,WSW,245,10.0,13.0,71,0.00,,,-99.99,,2013-06-01 18:12:00,
2013-06-01 13:21:00,63.0,54.0,-100.00,WSW,255,10.0,14.0,71,0.00,,,-99.99,,2013-06-01 18:21:00,
2013-06-01 13:32:00,63.0,54.0,-100.00,WSW,255,10.0,14.0,71,0.00,,,-99.99,,2013-06-01 18:32:00,
2013-06-01 13:42:00,65.0,54.0,-100.00,WSW,255,9.0,12.0,68,0.00,,,-99.99,,2013-06-01 18:42:00,
2013-06-01 13:51:00,66.0,55.0,-100.00,West,265,8.0,12.0,67,0.00,,,-99.99,,2013-06-01 18:51:00,
2013-06-01 14:02:00,66.0,55.0,-100.00,West,265,8.0,12.0,67,0.00,,,-99.99,,2013-06-01 19:02:00,
2013-06-01 14:11:00,66.0,55.0,-100.00,WSW,240,9.0,12.0,69,0.00,,,-99.99,,2013-06-01 19:11:00,
2013-06-01 14:21:00,67.0,56.0,-100.00,SW,230,7.0,13.0,68,0.00,,,-99.99,,2013-06-01 19:21:00,
2013-06-01 14:32:00,67.0,56.0,-100.00,SW,230,7.0,13.0,68,0.00,,,-99.99,,2013-06-01 19:32:00,
2013-06-01 14:42:00,66.0,55.0,-100.00,WSW,240,10.0,14.0,66,0.00,,,-99.99,,2013-06-01 19:42:00,
2013-06-01 14:52:00,67.0,55.0,-100.00,WSW,240,9.0,13.0,64,0.00,,,-99.99,,2013-06-01 19:52:00,
2013-06-01 15:01:00,67.0,54.0,-100.00,West,260,10.0,15.0,63,0.00,,,-99.99,,2013-06-01 20:01:00,
2013-06-01 15:12:00,68.0,54.0,-100.00,West,270,9.0,16.0,61,0.00,,,-99.99,,2013-06-01 20:12:00,
2013-06-01 15:21:00,69.0,55.0,-100.00,West,270,9.0,14.0,61,0.00,,,-99.99,,2013-06-01 20:21:00,
2013-06-01 15:32:00,68.0,54.0,-100.00,West,260,10.0,12.0,61,0.00,,,-99.99,,2013-06-01 20:32:00,
2013-06-01 15:42:00,68.0,54.0,-100.00,West,265,9.0,12.0,61,0.00,,,-99.99,,2013-06-01 20:42:00,
2013-06-01 15:52:00,67.0,54.0,-100.00,WSW,255,10.0,14.0,61,0.00,,,-99.99,,2013-06-01 20:52:00,
2013-06-01 16:01:00,67.0,54.0,-100.00,WSW,255,10.0,14.0,61,0.00,,,-99.99,,2013-06-01 21:01:00,
2013-06-01 16:11:00,69.0,54.0,-100.00,West,260,7.0,11.0,58,0.00,,,-99.99,,2013-06-01 21:11:00,
2013-06-01 16:21:00,69.0,55.0,-100.00,West,270,9.0,12.0,59,0.00,,,-99.99,,2013-06-01 21:21:00,
2013-06-01 16:33:00,69.0,55.0,-100.00,West,270,9.0,12.0,59,0.00,,,-99.99,,2013-06-01 21:33:00,
2013-06-01 16:42:00,70.0,54.0,-100.00,West,280,9.0,14.0,58,0.00,,,-99.99,,2013-06-01 21:42:00,
2013-06-01 16:53:00,69.0,55.0,-100.00,WNW,290,9.0,13.0,59,0.00,,,-99.99,,2013-06-01 21:53:00,
2013-06-01 17:03:00,69.0,55.0,-100.00,WNW,290,9.0,13.0,59,0.00,,,-99.99,,2013-06-01 22:03:00,
2013-06-01 17:12:00,71.0,55.0,-100.00,WNW,300,11.0,15.0,56,0.00,,,-99.99,,2013-06-01 22:12:00,
2013-06-01 17:23:00,71.0,55.0,-100.00,WNW,300,11.0,15.0,56,0.00,,,-99.99,,2013-06-01 22:23:00,
2013-06-01 17:33:00,70.0,54.0,-100.00,WNW,300,9.0,12.0,57,0.00,,,-99.99,,2013-06-01 22:33:00,
2013-06-01 17:42:00,70.0,54.0,-100.00,WNW,300,9.0,12.0,57,0.00,,,-99.99,,2013-06-01 22:42:00,
2013-06-01 17:53:00,70.0,55.0,-100.00,West,280,9.0,14.0,60,0.00,,,-99.99,,2013-06-01 22:53:00,
2013-06-01 18:02:00,70.0,55.0,-100.00,West,280,9.0,14.0,60,0.00,,,-99.99,,2013-06-01 23:02:00,
2013-06-01 18:11:00,70.0,55.0,-100.00,WNW,300,13.0,17.0,59,0.00,,,-99.99,,2013-06-01 23:11:00,
2013-06-01 18:22:00,69.0,55.0,-100.00,WNW,285,12.0,17.0,61,0.00,,,-99.99,,2013-06-01 23:22:00,
2013-06-01 18:32:00,69.0,55.0,-100.00,WNW,285,12.0,17.0,61,0.00,,,-99.99,,2013-06-01 23:32:00,
2013-06-01 18:42:00,70.0,56.0,-100.00,WNW,295,15.0,22.0,60,0.00,,,-99.99,,2013-06-01 23:42:00,
2013-06-01 18:52:00,70.0,56.0,-100.00,NW,310,12.0,20.0,60,0.00,,,-99.99,,2013-06-01 23:52:00,
2013-06-01 19:02:00,70.0,56.0,-100.00,NW,310,12.0,20.0,60,0.00,,,-99.99,,2013-06-02 00:02:00,
2013-06-01 19:11:00,68.0,55.0,-100.00,NW,305,9.0,14.0,63,0.00,,,-99.99,,2013-06-02 00:11:00,
2013-06-01 19:21:00,68.0,55.0,-100.00,NNW,340,5.0,13.0,64,0.00,,,-99.99,,2013-06-02 00:21:00,
2013-06-01 19:32:00,67.0,55.0,-100.00,NW,315,12.0,20.0,65,0.00,,,-99.99,,2013-06-02 00:32:00,
2013-06-01 19:42:00,67.0,55.0,-100.00,NW,315,12.0,20.0,65,0.00,,,-99.99,,2013-06-02 00:42:00,
2013-06-01 19:51:00,66.0,57.0,-100.00,NW,320,14.0,24.0,74,0.00,,,-99.99,,2013-06-02 00:51:00,
2013-06-01 20:01:00,66.0,57.0,-100.00,NW,320,14.0,24.0,74,0.00,,,-99.99,,2013-06-02 01:01:00,
2013-06-01 20:11:00,65.0,56.0,-100.00,NW,325,14.0,23.0,75,0.00,,,-99.99,,2013-06-02 01:11:00,
2013-06-01 20:21:00,64.0,57.0,-100.00,NNW,330,13.0,21.0,77,0.00,,,-99.99,,2013-06-02 01:21:00,
2013-06-01 20:32:00,64.0,57.0,-100.00,NNW,330,10.0,23.0,77,0.00,,,-99.99,,2013-06-02 01:32:00,
2013-06-01 20:42:00,63.0,57.0,-100.00,NW,325,11.0,18.0,79,0.00,,,-99.99,,2013-06-02 01:42:00,
2013-06-01 20:52:00,63.0,57.0,-100.00,NW,320,12.0,17.0,79,0.00,,,-99.99,,2013-06-02 01:52:00,
2013-06-01 21:01:00,63.0,57.0,-100.00,NW,320,12.0,20.0,81,0.00,,,-99.99,,2013-06-02 02:01:00,
2013-06-01 21:12:00,62.0,57.0,-100.00,NW,320,10.0,19.0,83,0.00,,,-99.99,,2013-06-02 02:12:00,
2013-06-01 21:21:00,62.0,58.0,-100.00,NW,325,11.0,21.0,84,0.00,,,-99.99,,2013-06-02 02:21:00,
2013-06-01 21:32:00,62.0,58.0,-100.00,NW,325,11.0,21.0,84,0.00,,,-99.99,,2013-06-02 02:32:00,
2013-06-01 21:41:00,62.0,58.0,-100.00,NNW,330,15.0,24.0,86,0.00,,,-99.99,,2013-06-02 02:41:00,
2013-06-01 21:51:00,61.0,58.0,-100.00,NW,325,16.0,22.0,87,0.00,,,-99.99,,2013-06-02 02:51:00,
2013-06-01 22:02:00,61.0,58.0,-100.00,NW,325,16.0,22.0,87,0.00,,,-99.99,,2013-06-02 03:02:00,
2013-06-01 22:11:00,61.0,56.0,-100.00,NW,315,10.0,22.0,86,0.00,,,-99.99,,2013-06-02 03:11:00,
2013-06-01 22:21:00,61.0,56.0,-100.00,NNW,330,11.0,21.0,85,0.00,,,-99.99,,2013-06-02 03:21:00,
2013-06-01 22:33:00,61.0,56.0,-100.00,NNW,330,11.0,21.0,85,0.00,,,-99.99,,2013-06-02 03:33:00,
2013-06-01 22:43:00,60.0,55.0,-100.00,NNW,345,9.0,26.0,83,0.00,,,-99.99,,2013-06-02 03:43:00,
2013-06-01 22:52:00,60.0,54.0,-100.00,North,0,7.0,19.0,82,0.00,,,-99.99,,2013-06-02 03:52:00,
2013-06-01 23:02:00,59.0,54.0,-100.00,North,0,8.0,23.0,82,0.00,,,-99.99,,2013-06-02 04:02:00,
2013-06-01 23:13:00,59.0,53.0,-100.00,North,0,12.0,21.0,81,0.00,,,-99.99,,2013-06-02 04:13:00,
2013-06-01 23:23:00,59.0,53.0,-100.00,North,0,12.0,21.0,81,0.00,,,-99.99,,2013-06-02 04:23:00,
2013-06-01 23:33:00,58.0,52.0,-100.00,North,0,11.0,23.0,80,0.00,,,-99.99,,2013-06-02 04:33:00,
2013-06-01 23:42:00,57.0,52.0,-100.00,NNW,340,10.0,20.0,81,0.00,,,-99.99,,2013-06-02 04:42:00,
2013-06-01 23:52:00,57.0,52.0,-100.00,NNW,340,10.0,20.0,81,0.00,,,-99.99,,2013-06-02 04:52:00,